International Skating Union - Official Site

ISU European Speed Skating Championships 2016
January 9-10, 2016

Draw | Lap Times | Index | Classification

Referee: Bert  TIMMERMAN  (NED)
Starter: Jouko  VESTERLUND  (FIN)
StartTime: EndTime: Air Temp: Ice Temp: Humidity:
17:39 19:34 18.0℃ -6.0℃ 37.2%
Result 5000m Men
Rankings as of Jan 10 2016 4:42PM
Rank: No.: Name: Nation: Time: Behind: Points:
1 14 Sven  Kramer NED NED 6:19.17200m - 18.71 - (18.7)
600m - 47.44 - (28.7)
1000m - 1:17.06 - (29.6)
1400m - 1:47.14 - (30.0)
1800m - 2:16.87 - (29.7)
2200m - 2:46.75 - (29.8)
2600m - 3:16.69 - (29.9)
3000m - 3:46.81 - (30.1)
3400m - 4:16.69 - (29.8)
3800m - 4:47.00 - (30.3)
4200m - 5:17.44 - (30.4)
4600m - 5:48.14 - (30.7)
5000m - 6:19.17 - (31.0)
37.917
2 12 Jan  Blokhuijsen NED NED 6:22.36200m - 18.60 - (18.6)
600m - 47.69 - (29.0)
1000m - 1:17.39 - (29.7)
1400m - 1:47.30 - (29.9)
1800m - 2:17.34 - (30.0)
2200m - 2:47.30 - (29.9)
2600m - 3:17.38 - (30.0)
3000m - 3:47.63 - (30.2)
3400m - 4:18.21 - (30.5)
3800m - 4:48.88 - (30.6)
4200m - 5:19.74 - (30.8)
4600m - 5:50.84 - (31.1)
5000m - 6:22.36 - (31.5)
3.19 38.236
3 2 Bart  Swings BEL BEL 6:24.91200m - 19.06 - (19.0)
600m - 48.68 - (29.6)
1000m - 1:18.40 - (29.7)
1400m - 1:48.38 - (29.9)
1800m - 2:18.79 - (30.4)
2200m - 2:49.04 - (30.2)
2600m - 3:19.46 - (30.4)
3000m - 3:49.87 - (30.4)
3400m - 4:20.40 - (30.5)
3800m - 4:51.14 - (30.7)
4200m - 5:22.07 - (30.9)
4600m - 5:53.25 - (31.1)
5000m - 6:24.91 - (31.6)
5.74 38.491
4 16 Håvard  Bøkko NOR NOR 6:31.62200m - 19.25 - (19.2)
600m - 49.76 - (30.5)
1000m - 1:20.27 - (30.5)
1400m - 1:50.72 - (30.4)
1800m - 2:21.51 - (30.7)
2200m - 2:52.02 - (30.5)
2600m - 3:22.77 - (30.7)
3000m - 3:53.47 - (30.7)
3400m - 4:24.53 - (31.0)
3800m - 4:55.87 - (31.3)
4200m - 5:27.60 - (31.7)
4600m - 5:59.52 - (31.9)
5000m - 6:31.62 - (32.1)
12.45 39.162
5 9 Andrea  Giovannini ITA ITA 6:32.22200m - 19.27 - (19.2)
600m - 49.64 - (30.3)
1000m - 1:20.18 - (30.5)
1400m - 1:51.01 - (30.8)
1800m - 2:21.39 - (30.3)
2200m - 2:52.39 - (31.0)
2600m - 3:23.42 - (31.0)
3000m - 3:54.57 - (31.1)
3400m - 4:25.87 - (31.3)
3800m - 4:57.37 - (31.5)
4200m - 5:29.14 - (31.7)
4600m - 6:00.69 - (31.5)
5000m - 6:32.22 - (31.5)
13.05 39.222
6 11 Haralds  Silovs LAT LAT 6:33.83200m - 18.90 - (18.9)
600m - 49.70 - (30.8)
1000m - 1:21.17 - (31.4)
1400m - 1:53.05 - (31.8)
1800m - 2:24.25 - (31.2)
2200m - 2:55.16 - (30.9)
2600m - 3:26.46 - (31.3)
3000m - 3:57.77 - (31.3)
3400m - 4:28.98 - (31.2)
3800m - 5:00.45 - (31.4)
4200m - 5:31.88 - (31.4)
4600m - 6:02.79 - (30.9)
5000m - 6:33.83 - (31.0)
14.66 39.383
7 21 Jan  Szymanski POL POL 6:34.43200m - 19.52 - (19.5)
600m - 49.25 - (29.7)
1000m - 1:19.59 - (30.3)
1400m - 1:49.89 - (30.3)
1800m - 2:20.71 - (30.8)
2200m - 2:51.57 - (30.8)
2600m - 3:22.49 - (30.9)
3000m - 3:53.53 - (31.0)
3400m - 4:24.77 - (31.2)
3800m - 4:55.68 - (30.9)
4200m - 5:27.34 - (31.6)
4600m - 6:00.99 - (33.6)
5000m - 6:34.43 - (33.4)
15.26 39.443
8 24 Denis  Yuskov RUS RUS 6:35.81200m - 18.90 - (18.9)
600m - 48.73 - (29.8)
1000m - 1:19.30 - (30.5)
1400m - 1:50.28 - (30.9)
1800m - 2:21.50 - (31.2)
2200m - 2:53.05 - (31.5)
2600m - 3:25.18 - (32.1)
3000m - 3:57.22 - (32.0)
3400m - 4:29.01 - (31.7)
3800m - 5:00.64 - (31.6)
4200m - 5:32.30 - (31.6)
4600m - 6:03.94 - (31.6)
5000m - 6:35.81 - (31.8)
16.64 39.581
9 10 Nicola  Tumolero ITA ITA 6:36.40200m - 19.66 - (19.6)
600m - 50.50 - (30.8)
1000m - 1:22.08 - (31.5)
1400m - 1:53.36 - (31.2)
1800m - 2:24.55 - (31.1)
2200m - 2:55.86 - (31.3)
2600m - 3:27.17 - (31.3)
3000m - 3:58.49 - (31.3)
3400m - 4:29.73 - (31.2)
3800m - 5:01.13 - (31.4)
4200m - 5:33.07 - (31.9)
4600m - 6:04.81 - (31.7)
5000m - 6:36.40 - (31.5)
17.23 39.640
10 17 Sindre  Henriksen NOR NOR 6:38.23200m - 18.98 - (18.9)
600m - 48.81 - (29.8)
1000m - 1:19.69 - (30.8)
1400m - 1:51.46 - (31.7)
1800m - 2:23.28 - (31.8)
2200m - 2:55.39 - (32.1)
2600m - 3:27.65 - (32.2)
3000m - 4:00.00 - (32.3)
3400m - 4:31.71 - (31.7)
3800m - 5:03.47 - (31.7)
4200m - 5:34.72 - (31.2)
4600m - 6:06.17 - (31.4)
5000m - 6:38.23 - (32.0)
19.06 39.823
11 3 Vitaly  Mikhailov BLR BLR 6:38.56200m - 19.06 - (19.0)
600m - 48.70 - (29.6)
1000m - 1:19.70 - (31.0)
1400m - 1:50.88 - (31.1)
1800m - 2:22.18 - (31.3)
2200m - 2:53.45 - (31.2)
2600m - 3:24.99 - (31.5)
3000m - 3:56.71 - (31.7)
3400m - 4:28.62 - (31.9)
3800m - 5:00.71 - (32.0)
4200m - 5:33.19 - (32.4)
4600m - 6:05.93 - (32.7)
5000m - 6:38.56 - (32.6)
19.39 39.856
12 22 Sergey  Gryaztsov RUS RUS 6:39.18200m - 19.06 - (19.0)
600m - 50.01 - (30.9)
1000m - 1:21.38 - (31.3)
1400m - 1:52.55 - (31.1)
1800m - 2:23.77 - (31.2)
2200m - 2:54.94 - (31.1)
2600m - 3:26.38 - (31.4)
3000m - 3:57.99 - (31.6)
3400m - 4:29.89 - (31.9)
3800m - 5:01.90 - (32.0)
4200m - 5:34.17 - (32.2)
4600m - 6:06.55 - (32.3)
5000m - 6:39.18 - (32.6)
20.01 39.918
13 13 Douwe  de Vries NED NED 6:41.56200m - 19.08 - (19.0)
600m - 49.16 - (30.0)
1000m - 1:20.52 - (31.3)
1400m - 1:52.26 - (31.7)
1800m - 2:24.08 - (31.8)
2200m - 2:56.06 - (31.9)
2600m - 3:28.05 - (31.9)
3000m - 4:00.04 - (31.9)
3400m - 4:32.07 - (32.0)
3800m - 5:04.19 - (32.1)
4200m - 5:36.69 - (32.5)
4600m - 6:08.99 - (32.3)
5000m - 6:41.56 - (32.5)
22.39 40.156
14 23 Sergey  Trofimov RUS RUS 6:41.84200m - 19.23 - (19.2)
600m - 49.57 - (30.3)
1000m - 1:21.14 - (31.5)
1400m - 1:52.82 - (31.6)
1800m - 2:24.69 - (31.8)
2200m - 2:56.17 - (31.4)
2600m - 3:27.77 - (31.6)
3000m - 3:59.70 - (31.9)
3400m - 4:31.67 - (31.9)
3800m - 5:03.83 - (32.1)
4200m - 5:36.32 - (32.4)
4600m - 6:08.92 - (32.6)
5000m - 6:41.84 - (32.9)
22.67 40.184
15 19 Zbigniew  Brodka POL POL 6:42.80200m - 19.16 - (19.1)
600m - 49.45 - (30.2)
1000m - 1:21.14 - (31.6)
1400m - 1:53.01 - (31.8)
1800m - 2:24.60 - (31.5)
2200m - 2:56.67 - (32.0)
2600m - 3:28.40 - (31.7)
3000m - 4:00.47 - (32.0)
3400m - 4:32.62 - (32.1)
3800m - 5:05.49 - (32.8)
4200m - 5:37.87 - (32.3)
4600m - 6:10.06 - (32.1)
5000m - 6:42.80 - (32.7)
23.63 40.280
16 1 Linus  Heidegger AUT AUT 6:43.13200m - 19.83 - (19.8)
600m - 51.26 - (31.4)
1000m - 1:22.94 - (31.6)
1400m - 1:54.61 - (31.6)
1800m - 2:26.33 - (31.7)
2200m - 2:58.06 - (31.7)
2600m - 3:29.91 - (31.8)
3000m - 4:01.79 - (31.8)
3400m - 4:33.81 - (32.0)
3800m - 5:05.87 - (32.0)
4200m - 5:37.93 - (32.0)
4600m - 6:10.42 - (32.4)
5000m - 6:43.13 - (32.7)
23.96 40.313
17 25 Livio  Wenger SUI SUI 6:44.78200m - 19.71 - (19.7)
600m - 51.02 - (31.3)
1000m - 1:23.22 - (32.2)
1400m - 1:54.92 - (31.7)
1800m - 2:26.39 - (31.4)
2200m - 2:58.06 - (31.6)
2600m - 3:29.61 - (31.5)
3000m - 4:01.18 - (31.5)
3400m - 4:32.65 - (31.4)
3800m - 5:04.55 - (31.9)
4200m - 5:36.90 - (32.3)
4600m - 6:10.32 - (33.4)
5000m - 6:44.78 - (34.4)
25.61 40.478
18 6 Felix  Maly GER GER 6:46.08200m - 20.17 - (20.1)
600m - 51.70 - (31.5)
1000m - 1:23.14 - (31.4)
1400m - 1:54.48 - (31.3)
1800m - 2:26.01 - (31.5)
2200m - 2:57.73 - (31.7)
2600m - 3:29.67 - (31.9)
3000m - 4:01.91 - (32.2)
3400m - 4:33.99 - (32.0)
3800m - 5:06.39 - (32.4)
4200m - 5:39.33 - (32.9)
4600m - 6:12.73 - (33.4)
5000m - 6:46.08 - (33.3)
26.91 40.608
19 20 Piotr  Puszkarski POL POL 6:51.77200m - 20.22 - (20.2)
600m - 51.78 - (31.5)
1000m - 1:23.59 - (31.8)
1400m - 1:55.03 - (31.4)
1800m - 2:26.93 - (31.9)
2200m - 2:59.09 - (32.1)
2600m - 3:30.94 - (31.8)
3000m - 4:02.74 - (31.8)
3400m - 4:35.13 - (32.3)
3800m - 5:08.12 - (32.9)
4200m - 5:41.92 - (33.8)
4600m - 6:16.43 - (34.5)
5000m - 6:51.77 - (35.3)
32.60 41.177
20 8 Konrád  Nagy HUN HUN 6:58.03200m - 19.47 - (19.4)
600m - 51.24 - (31.7)
1000m - 1:23.30 - (32.0)
1400m - 1:55.25 - (31.9)
1800m - 2:27.67 - (32.4)
2200m - 3:00.57 - (32.9)
2600m - 3:33.52 - (32.9)
3000m - 4:07.05 - (33.5)
3400m - 4:40.86 - (33.8)
3800m - 5:15.18 - (34.3)
4200m - 5:49.61 - (34.4)
4600m - 6:24.10 - (34.4)
5000m - 6:58.03 - (33.9)
38.86 41.803
21 4 Inigo  Vidondo ESP ESP 6:58.59200m - 20.49 - (20.4)
600m - 52.50 - (32.0)
1000m - 1:23.72 - (31.2)
1400m - 1:55.83 - (32.1)
1800m - 2:27.70 - (31.8)
2200m - 3:00.22 - (32.5)
2600m - 3:32.76 - (32.5)
3000m - 4:05.90 - (33.1)
3400m - 4:39.42 - (33.5)
3800m - 5:13.29 - (33.8)
4200m - 5:47.60 - (34.3)
4600m - 6:22.40 - (34.8)
5000m - 6:58.59 - (36.1)
39.42 41.859
22 5 Tuomas  Rahnasto FIN FIN 7:02.48200m - 19.91 - (19.9)
600m - 51.82 - (31.9)
1000m - 1:23.70 - (31.8)
1400m - 1:56.33 - (32.6)
1800m - 2:28.80 - (32.4)
2200m - 3:01.97 - (33.1)
2600m - 3:35.36 - (33.3)
3000m - 4:09.00 - (33.6)
3400m - 4:43.02 - (34.0)
3800m - 5:16.99 - (33.9)
4200m - 5:51.56 - (34.5)
4600m - 6:26.66 - (35.1)
5000m - 7:02.48 - (35.8)
43.31 42.248
23 7 Jonas  Pflug GER GER DNS -
24 18 Sverre Lunde  Pedersen NOR NOR WDR -